| time (UTC) | temp F | wind direction | speed MPH | gust MPH | rain 1hr in | rain 24hr in | rain mn in | humidity % | barometer mb |
| 20260510001511 | 53 | 342 | 3.0 | 12.0 | 0.00 | 0.02 | 0.00 | 43 | 1014.4 |
| 20260510000014 | 53 | 345 | 4.0 | 8.0 | 0.00 | 0.02 | 0.00 | 43 | 1014.3 |
| 20260509234509 | 53 | 346 | 6.0 | 9.0 | 0.00 | 0.02 | 0.00 | 43 | 1014.2 |
| 20260509233012 | 53 | 23 | 3.0 | 10.0 | 0.00 | 0.02 | 0.00 | 43 | 1014.2 |
| 20260509231511 | 53 | 324 | 4.0 | 12.0 | 0.00 | 0.02 | 0.00 | 43 | 1014.1 |
| 20260509230007 | 53 | 333 | 5.0 | 12.0 | 0.00 | 0.02 | 0.00 | 43 | 1014.0 |
| 20260509224508 | 54 | 338 | 3.0 | 11.0 | 0.00 | 0.02 | 0.00 | 43 | 1013.9 |
| 20260509223006 | 54 | 357 | 4.0 | 14.0 | 0.00 | 0.02 | 0.00 | 43 | 1013.9 |
| 20260509221504 | 55 | 354 | 5.0 | 12.0 | 0.00 | 0.02 | 0.00 | 42 | 1013.9 |
| 20260509220004 | 54 | 323 | 6.0 | 12.0 | 0.00 | 0.02 | 0.00 | 43 | 1013.8 |
| 20260509214503 | 55 | 1 | 5.0 | 11.0 | 0.00 | 0.02 | 0.00 | 43 | 1013.8 |
| 20260509213103 | 55 | 16 | 5.0 | 18.0 | 0.00 | 0.02 | 0.00 | 43 | 1013.7 |
| 20260509211501 | 54 | 34 | 9.0 | 15.0 | 0.00 | 0.02 | 0.00 | 42 | 1013.9 |
| 20260509210108 | 55 | 75 | 8.0 | 13.0 | 0.00 | 0.02 | 0.00 | 43 | 1013.8 |
| 20260509204602 | 55 | 352 | 6.0 | 16.0 | 0.00 | 0.02 | 0.00 | 45 | 1013.7 |
| 20260509203059 | 55 | 3 | 10.0 | 17.0 | 0.00 | 0.02 | 0.00 | 43 | 1013.6 |
| 20260509201607 | 54 | 321 | 6.0 | 13.0 | 0.00 | 0.02 | 0.00 | 43 | 1013.6 |
| 20260509200107 | 55 | 326 | 7.0 | 17.0 | 0.00 | 0.02 | 0.00 | 43 | 1013.5 |
| 20260509194555 | 55 | 338 | 8.0 | 20.0 | 0.00 | 0.02 | 0.00 | 42 | 1013.6 |
| 20260509193056 | 55 | 324 | 10.0 | 19.0 | 0.00 | 0.02 | 0.00 | 44 | 1013.5 |
| 20260509191551 | 54 | 333 | 8.0 | 18.0 | 0.00 | 0.02 | 0.00 | 45 | 1013.6 |
| 20260509190049 | 53 | 25 | 11.0 | 21.0 | 0.00 | 0.02 | 0.00 | 45 | 1013.6 |
| 20260509184558 | 53 | 278 | 8.0 | 16.0 | 0.00 | 0.02 | 0.00 | 46 | 1013.6 |
| 20260509183047 | 53 | 15 | 10.0 | 23.0 | 0.00 | 0.02 | 0.00 | 48 | 1013.5 |
| 20260509181549 | 53 | 347 | 8.0 | 17.0 | 0.00 | 0.02 | 0.00 | 48 | 1013.5 |
| 20260509180043 | 52 | 343 | 11.0 | 20.0 | 0.00 | 0.02 | 0.00 | 50 | 1013.5 |
| 20260509174543 | 51 | 338 | 7.0 | 20.0 | 0.00 | 0.02 | 0.00 | 52 | 1013.6 |
| 20260509173039 | 51 | 352 | 5.0 | 20.0 | 0.00 | 0.02 | 0.00 | 55 | 1013.3 |
| 20260509171537 | 50 | 11 | 9.0 | 18.0 | 0.00 | 0.02 | 0.00 | 53 | 1013.5 |
| 20260509170036 | 50 | 13 | 8.0 | 15.0 | 0.00 | 0.02 | 0.00 | 54 | 1013.3 |
| 20260509164531 | 49 | 356 | 11.0 | 19.0 | 0.00 | 0.02 | 0.00 | 55 | 1013.4 |
| 20260509163029 | 49 | 18 | 10.0 | 21.0 | 0.00 | 0.02 | 0.00 | 57 | 1013.4 |
| 20260509161529 | 48 | 7 | 10.0 | 18.0 | 0.00 | 0.02 | 0.00 | 57 | 1013.2 |
| 20260509160032 | 48 | 329 | 9.0 | 18.0 | 0.00 | 0.02 | 0.00 | 58 | 1013.2 |
| 20260509154523 | 47 | 315 | 9.0 | 19.0 | 0.00 | 0.02 | 0.00 | 60 | 1013.1 |
| 20260509153034 | 47 | 347 | 7.0 | 18.0 | 0.00 | 0.02 | 0.00 | 62 | 1013.0 |
| 20260509151520 | 47 | 2 | 9.0 | 18.0 | 0.00 | 0.02 | 0.00 | 61 | 1013.0 |
| 20260509150027 | 46 | 329 | 7.0 | 15.0 | 0.00 | 0.02 | 0.00 | 64 | 1012.8 |
| 20260509144526 | 45 | 333 | 8.0 | 16.0 | 0.00 | 0.02 | 0.00 | 64 | 1012.7 |
| 20260509143018 | 45 | 323 | 8.0 | 16.0 | 0.00 | 0.02 | 0.00 | 65 | 1012.6 |
| 20260509141516 | 44 | 8 | 9.0 | 16.0 | 0.00 | 0.02 | 0.00 | 66 | 1012.4 |
| 20260509140012 | 44 | 342 | 8.0 | 16.0 | 0.00 | 0.02 | 0.00 | 66 | 1012.2 |
| 20260509134515 | 43 | 319 | 6.0 | 15.0 | 0.00 | 0.02 | 0.00 | 68 | 1012.1 |
| 20260509133014 | 43 | 339 | 5.0 | 12.0 | 0.00 | 0.02 | 0.00 | 66 | 1011.9 |
| 20260509131508 | 42 | 316 | 5.0 | 11.0 | 0.00 | 0.02 | 0.00 | 68 | 1011.7 |
| 20260509130003 | 41 | 318 | 4.0 | 10.0 | 0.00 | 0.02 | 0.00 | 72 | 1011.5 |
| 20260509124503 | 39 | 321 | 2.0 | 7.0 | 0.00 | 0.02 | 0.00 | 76 | 1011.4 |
| 20260509123131 | 38 | 333 | 3.0 | 6.0 | 0.00 | 0.02 | 0.00 | 78 | 1011.3 |
| 20260509121613 | 36 | 318 | 1.0 | 4.0 | 0.00 | 0.02 | 0.00 | 83 | 1011.0 |
| 20260509120112 | 34 | 300 | 1.0 | 4.0 | 0.00 | 0.02 | 0.00 | 84 | 1010.8 |
| 20260509114558 | 33 | 309 | 2.0 | 4.0 | 0.00 | 0.02 | 0.00 | 84 | 1010.5 |
| 20260509113050 | 34 | 309 | 2.0 | 4.0 | 0.00 | 0.02 | 0.00 | 81 | 1010.4 |
| 20260509111600 | 34 | 344 | 1.0 | 3.0 | 0.00 | 0.02 | 0.00 | 82 | 1010.0 |
| 20260509110044 | 34 | 299 | 1.0 | 4.0 | 0.00 | 0.02 | 0.00 | 82 | 1009.8 |
| 20260509104545 | 35 | 331 | 2.0 | 4.0 | 0.00 | 0.02 | 0.00 | 80 | 1009.6 |
| 20260509103041 | 36 | 316 | 2.0 | 5.0 | 0.00 | 0.02 | 0.00 | 82 | 1009.3 |
| 20260509101553 | 38 | 309 | 1.0 | 3.0 | 0.00 | 0.02 | 0.00 | 82 | 1009.1 |
| 20260509100032 | 39 | 342 | 2.0 | 5.0 | 0.00 | 0.02 | 0.00 | 78 | 1008.9 |
| 20260509094536 | 39 | 8 | 1.0 | 5.0 | 0.00 | 0.02 | 0.00 | 76 | 1008.6 |
| 20260509093027 | 39 | 36 | 0.0 | 4.0 | 0.00 | 0.02 | 0.00 | 79 | 1008.4 |
| 20260509091535 | 39 | 334 | 1.0 | 4.0 | 0.00 | 0.02 | 0.00 | 78 | 1008.1 |
| 20260509090024 | 40 | 37 | 3.0 | 7.0 | 0.00 | 0.02 | 0.00 | 78 | 1007.8 |
| 20260509084522 | 40 | 8 | 2.0 | 7.0 | 0.00 | 0.02 | 0.00 | 79 | 1007.6 |
| 20260509083016 | 40 | 2 | 2.0 | 7.0 | 0.00 | 0.02 | 0.00 | 79 | 1007.2 |
| 20260509081523 | 40 | 39 | 2.0 | 6.0 | 0.00 | 0.02 | 0.00 | 80 | 1006.9 |
| 20260509080012 | 39 | 18 | 2.0 | 7.0 | 0.00 | 0.02 | 0.00 | 82 | 1006.7 |
| 20260509074508 | 39 | 307 | 2.0 | 5.0 | 0.00 | 0.02 | 0.00 | 83 | 1006.4 |
| 20260509073006 | 39 | 330 | 1.0 | 5.0 | 0.00 | 0.02 | 0.00 | 86 | 1006.3 |
| 20260509071505 | 38 | 314 | 3.0 | 8.0 | 0.00 | 0.02 | 0.00 | 93 | 1006.3 |
| 20260509070004 | 38 | 321 | 2.0 | 5.0 | 0.00 | 0.02 | 0.00 | 93 | 1006.1 |
| 20260509064619 | 38 | 300 | 2.0 | 4.0 | 0.00 | 0.02 | 0.00 | 92 | 1005.9 |
| 20260509063055 | 39 | 330 | 3.0 | 5.0 | 0.00 | 0.02 | 0.00 | 92 | 1006.0 |
| 20260509061551 | 40 | 309 | 2.0 | 3.0 | 0.00 | 0.02 | 0.00 | 91 | 1005.7 |
| 20260509060047 | 41 | 30 | 0.0 | 1.0 | 0.00 | 0.02 | 0.00 | 90 | 1005.6 |
| 20260509054556 | 42 | 30 | 0.0 | 2.0 | 0.00 | 0.02 | 0.00 | 88 | 1005.4 |
| 20260509053040 | 44 | 34 | 0.0 | 0.0 | 0.00 | 0.02 | 0.00 | 87 | 1005.0 |
| 20260509051538 | 45 | 34 | 0.0 | 0.0 | 0.00 | 0.02 | 0.00 | 85 | 1004.9 |
| 20260509050038 | 45 | 34 | 0.0 | 3.0 | 0.00 | 0.02 | 0.00 | 85 | 1005.0 |
| 20260509044533 | 46 | 37 | 2.0 | 6.0 | 0.00 | 0.02 | 0.02 | 86 | 1005.2 |
| 20260509043034 | 46 | 28 | 4.0 | 8.0 | 0.00 | 0.02 | 0.02 | 83 | 1005.2 |
| 20260509041558 | 46 | 48 | 0.0 | 1.0 | 0.00 | 0.02 | 0.02 | 85 | 1005.1 |
| 20260509040032 | 47 | 48 | 2.0 | 3.0 | 0.02 | 0.02 | 0.02 | 84 | 1004.9 |
| 20260509034529 | 47 | 49 | 0.0 | 4.0 | 0.02 | 0.02 | 0.02 | 81 | 1004.7 |
| 20260509033029 | 47 | 58 | 0.0 | 5.0 | 0.02 | 0.02 | 0.02 | 80 | 1004.9 |
| 20260509031534 | 48 | 44 | 2.0 | 10.0 | 0.02 | 0.02 | 0.02 | 79 | 1005.0 |
| 20260509030030 | 50 | 41 | 4.0 | 13.0 | 0.00 | 0.00 | 0.00 | 73 | 1005.0 |
| 20260509024527 | 54 | 17 | 6.0 | 13.0 | 0.00 | 0.00 | 0.00 | 64 | 1004.9 |
| 20260509023029 | 56 | 336 | 7.0 | 20.0 | 0.00 | 0.00 | 0.00 | 55 | 1004.4 |
| 20260509021533 | 57 | 317 | 4.0 | 12.0 | 0.00 | 0.00 | 0.00 | 45 | 1003.8 |
| 20260509020124 | 57 | 326 | 17.0 | 27.0 | 0.00 | 0.00 | 0.00 | 54 | 1003.0 |
| 20260509014526 | 60 | 294 | 10.0 | 22.0 | 0.00 | 0.00 | 0.00 | 47 | 1002.4 |
| 20260509013036 | 60 | 323 | 2.0 | 5.0 | 0.00 | 0.00 | 0.00 | 46 | 1001.5 |
| 20260509011523 | 61 | 321 | 2.0 | 5.0 | 0.00 | 0.00 | 0.00 | 43 | 1001.3 |
| 20260509010023 | 62 | 324 | 3.0 | 8.0 | 0.00 | 0.00 | 0.00 | 42 | 1001.3 |
| 20260509004522 | 63 | 333 | 4.0 | 10.0 | 0.00 | 0.00 | 0.00 | 41 | 1001.5 |
| 20260509003020 | 64 | 16 | 6.0 | 18.0 | 0.00 | 0.00 | 0.00 | 39 | 1001.6 |